{"data":{"norad_id":60110,"epoch":"2026-05-25T03:07:51.165120Z","epoch_age_seconds":63668,"freshness":"FRESH","line1":"1 60110U 24117V   26145.13045330 -.00000985  00000+0 -21151-4 0  9997","line2":"2 60110  53.1620  41.7957 0001150 122.3536 237.7576 15.30187924108599","mean_motion":15.30187924,"eccentricity":0.000115,"inclination_deg":53.162,"raan_deg":41.7957,"arg_perigee_deg":122.3536,"mean_anomaly_deg":237.7576,"bstar":-2.1151e-5,"rev_number":10859,"period_min":94.106088370882,"perigee_km":474.4629867812,"apogee_km":476.03926605028,"semimajor_km":6853.3881264157,"source":"CELESTRAK","updated_at":"2026-05-25T13:38:19.164154Z"}}